Regional Weather Roundup
Issued by NWS Newport/Morehead, NC

Current Version | Previous Version | Graphics & Text | Print | Product List | Glossary Off
Versions: 1 2 3 4 5 6 7 8 9 10 11 12 13 14 15 16 17 18 19 20 21 22 23 24 25 26 27 28 29 30 31 32 33 34 35 36 37 38 39 40 41 42 43 44 45 46 47 48 49 50

000
ASUS42 KMHX 260625
RWRMHX
WEATHER ROUNDUP FOR EASTERN NORTH CAROLINA
NATIONAL WEATHER SERVICE NEWPORT/MOREHEAD CITY NC
200 AM EDT FRI MAY 26 2017

NOTE: "FAIR" INDICATES FEW OR NO CLOUDS BELOW 12,000 FEET
WITH NO SIGNIFICANT WEATHER AND/OR OBSTRUCTIONS TO VISIBILITY

NCZ015>017-031-032-045>047-102-103-260700-
NORTH COAST

CITY           SKY/WX    TMP DP  RH WIND       PRES   REMARKS
EDENTON        CLEAR     69  58  67 W14G24    29.73R
ELIZABETH CITY PTCLDY    66  57  72 SW15G26   29.69R
KITTY HAWK     MOCLDY    67  57  69 SW12G21   29.70R
MANTEO         PTCLDY    67  58  72 W20       29.72R

$$

NCZ045>047-081-094-103-104-260700-
CENTRAL COAST

CITY           SKY/WX    TMP DP  RH WIND       PRES   REMARKS
FRISCO         CLEAR     71  56  58 W15G24    29.76R

$$

NCZ095-097-098-100-101-260700-
SOUTHERN COAST

CITY           SKY/WX    TMP DP  RH WIND       PRES   REMARKS
BEAUFORT       CLEAR     70  57  63 W20G28    29.80R
CEDAR ISLAND   NOT AVBL
JACKSONVILLE   CLEAR     65  55  70 SW9       29.80S
PINEY ISLAND   CLEAR    N/A N/A N/A W18G31    29.78
WILMINGTON     CLEAR     66  54  65 SW12      29.83S


$$

NCZ011>013-027>030-043-044-078>080-089-090>093-098-260700-
COASTAL PLAIN

CITY           SKY/WX    TMP DP  RH WIND       PRES   REMARKS
AHOSKIE          N/A     61  55  81 CALM      29.72R
CLINTON        CLEAR     62  55  78 SW5       29.82R
ELIZABETHTOWN  CLEAR     65  54  66 SW8       29.83S
GOLDSBORO      CLEAR     65  57  75 SW10      29.77R
GREENVILLE     CLEAR     64  54  68 SW7       29.79R
HAVELOCK       NOT AVBL
KENANSVILLE    CLEAR     63  54  72 SW6       29.80S
KINSTON        CLEAR     64  54  69 CALM      29.79R
NEW BERN       CLEAR     66  54  65 SW12G20   29.80R
RICHLANDS      CLEAR     64  55  72 SW9       29.81S
ROCKY MOUNT    CLEAR     62  55  77 SW7       29.75R
WASHINGTON     CLEAR     64  55  75 SW9       29.76R
WHITEVILLE     CLEAR     65  53  64 SW8       29.85R

$$

AMZ130-135-150-152-154-156-158-170-250-252-270-ANZ085-086-088-633-658-670-260700-
MARINE OBSERVATIONS

STATION/POSITION TIME  TEMP    WIND        PRES    WAVE   SWELL
                       AIR SEA DIR/SP/G            HT/PER HT/PER
                 (UTC) (F)     (DEG/KT/KT) (MB)    (FT/S) (FT/S)
CHESAPEAKE LIGHT NOT AVBL
64 E VA BEACH    0550   65 63  240/ 17/ 21 1004.6    7/ 8   5/ 8
DUCK             0600   69 62  230/ 21/ 26 1005.1
2 E DUCK         0600      62                N/A     2/ 8
OREGON INLET     0600   70 71  230/ 24/ 29 1006.0
13E OREGON INLT  0548      66                N/A     6/ 8   5/ 8
HATTERAS CG      0600   70 74  240/ 15/ 24 1007.5
DIAMOND BUOY     0550   74 78  260/ 27/ 33 1007.4    9/ 9   5/ 9
CAPE LOOKOUT     0600   72     260/ 23/ 28 1008.8
BEAUFORT LAB     0600   70 70  260/  6/ 17 1008.4
30 SE NEW RVR IN 0608   73 75  270/ 23/ 31 1009.7
30 SE NEW RVR IN 0613      75                N/A     9/ 8   2/11
27 SE WRIGHTSVLE 0608   73 75  240/ 21/ 33 1009.5
5 SE WRIGHTSVLE  0608   72 73  240/ 16/ 27 1010.5
225 S CAPE HAT   0550   76 76  260/ 19/ 25 1013.0   11/ 8   3/14
41 SE CHARLESTON 0610   74 74  260/ 17/ 21 1012.4

$$



USA.gov is the U.S. government's official web portal to all federal, state and local government web resources and services.